Wind_Speed
13 12 12 12 12 11 11 11 10 9 9 8 8 7 6 6 6 6 5 5 5 5 4 4 4 3 3 3 2 2 1 1 1 1 1 1 1 1 2 2 2 2 2
14 14 14 13 13 13 12 12 11 11 10 9 9 9 8 7 7 7 6 6 6 6 5 5 4 4 4 3 3 3 3 2 2 2 2 2 2 2 2 3 3 3 3
16 15 15 15 15 14 14 14 14 13 12 11 10 10 10 9 8 8 8 7 7 6 6 6 5 6 5 5 5 5 5 4 4 4 3 3 3 4 4 4 4 4 4
18 17 16 16 16 16 15 15 15 15 14 13 12 12 11 11 10 10 9 9 8 8 7 7 7 7 7 7 7 7 6 6 6 6 5 5 6 5 5 5 5 5 5
19 18 18 17 17 17 16 16 16 16 15 15 14 14 13 13 12 11 11 10 10 10 9 9 9 8 8 9 9 9 9 8 8 8 8 7 7 7 7 7 7 7 6
21 20 20 19 18 18 18 17 17 17 17 16 16 15 15 15 14 13 12 12 12 12 11 11 10 10 10 10 11 11 11 10 10 10 10 10 9 9 9 9 9 8 8
22 22 22 21 20 20 19 19 18 18 18 18 17 17 17 16 16 15 14 14 14 13 13 12 12 12 12 12 12 13 13 13 12 12 12 12 11 11 11 11 11 10 10
25 23 23 22 22 21 21 20 20 19 19 19 19 18 18 17 17 16 16 16 16 15 15 15 14 14 14 14 14 15 15 15 15 15 14 14 14 13 13 13 13 13 12
27 25 24 24 23 23 23 22 22 21 21 21 21 20 19 19 18 18 18 17 17 17 17 17 16 16 16 17 17 17 17 17 17 17 17 16 16 15 15 15 14 14 14
27 27 26 25 25 25 25 24 24 24 23 23 22 22 21 20 20 20 20 19 19 19 19 19 19 19 19 19 19 19 19 19 19 19 19 18 18 18 17 17 17 16 16
29 28 27 27 26 26 26 26 26 25 25 24 24 24 23 22 22 22 22 21 21 22 21 21 21 21 21 21 21 21 21 21 21 21 21 21 21 20 20 19 19 19 19
31 30 29 29 28 27 27 28 27 27 27 26 26 25 25 25 24 24 24 23 23 24 23 24 24 23 24 24 24 24 24 23 23 23 23 23 23 22 22 21 21 21 21
32 32 32 31 30 29 29 29 29 29 28 28 28 27 27 27 27 26 26 26 25 26 26 26 26 25 26 26 25 25 25 25 25 25 24 24 24 24 24 23 23 23 23
33 34 33 33 32 32 31 31 31 31 31 30 29 29 29 28 28 28 28 28 28 28 28 28 28 28 28 27 27 27 26 26 26 27 26 26 26 26 26 26 25 25 25
34 34 34 34 34 33 33 33 32 32 32 32 31 31 31 30 29 29 29 29 30 30 29 29 30 30 30 29 29 28 28 28 28 28 28 28 28 28 28 28 28 28 27
35 35 35 35 35 34 35 35 34 34 33 33 33 33 32 32 31 31 31 31 31 31 31 31 32 31 31 31 31 30 30 30 29 29 29 29 30 30 30 30 30 29 29
35 36 36 36 36 36 36 36 37 36 35 34 35 35 34 33 33 34 34 34 34 33 34 33 33 33 33 32 33 32 32 32 31 30 30 31 31 31 31 31 31 31 31
36 36 37 37 37 37 37 38 38 38 37 37 36 36 36 36 35 35 35 35 35 35 35 35 35 35 35 34 34 34 34 33 32 32 32 32 31 31 32 32 33 33 33
37 37 37 38 38 38 38 39 40 40 39 38 37 37 38 38 38 38 38 37 36 36 37 36 36 36 36 36 35 35 35 34 33 34 34 34 33 33 34 34 35 36 35
38 38 38 38 38 39 40 40 40 40 40 39 39 39 39 40 39 39 39 38 38 37 37 37 37 36 36 36 36 35 34 34 34 35 35 35 35 35 36 36 36 36 36
39 38 38 38 39 39 39 39 40 40 40 41 41 40 40 40 40 38 39 38 38 38 38 38 37 37 36 36 35 35 34 35 35 36 36 36 37 37 37 37 37 36 37
39 39 39 38 38 39 39 39 39 40 40 40 40 40 39 39 39 38 37 38 38 38 38 38 37 36 36 35 35 34 35 36 36 37 37 37 37 37 37 37 38 38 38
37 39 39 39 39 38 38 39 39 39 40 40 40 40 40 39 39 38 37 36 37 38 38 39 39 38 37 35 35 36 37 37 37 38 38 38 38 38 38 38 39 40 39
36 38 39 39 39 38 38 38 38 39 40 40 40 40 40 40 39 39 38 38 38 38 38 39 39 38 38 38 38 38 38 38 38 37 37 38 39 39 40 39 39 39 39
35 37 38 39 39 39 39 39 39 40 40 40 40 41 41 41 41 40 39 39 39 38 38 38 39 39 41 42 41 41 41 40 40 40 39 39 40 40 40 40 40 39 38
35 36 37 39 40 40 40 40 40 41 41 41 41 41 42 42 42 41 41 40 40 40 39 39 40 41 41 42 42 42 42 43 42 42 41 41 41 42 42 41 41 40 39
Wind_Direction
242 241 242 241 239 239 238 236 235 233 232 232 229 226 225 223 222 222 224 221 218 220 224 224 226 230 234 238 241 246 264 294 315 323 317 324 344 337 334 329 327 329 325
243 242 241 240 240 238 237 236 236 235 232 232 230 230 234 232 232 232 234 231 230 231 233 234 233 235 239 242 249 254 262 269 277 283 284 283 288 297 300 301 303 304 306
243 243 242 240 239 238 238 238 238 236 236 236 236 232 235 237 238 239 239 241 241 240 242 244 244 244 247 253 258 259 261 261 266 267 271 273 276 281 285 290 295 293 292
244 244 242 240 240 239 239 239 239 238 238 239 240 238 239 240 240 242 242 243 244 244 245 248 250 250 251 254 258 260 260 262 264 264 269 271 273 276 280 283 285 284 284
243 243 243 241 241 240 239 239 240 240 241 241 243 243 244 245 243 244 246 246 247 248 248 252 254 256 257 257 259 260 262 262 265 268 270 272 274 274 276 279 280 279 280
242 242 243 242 241 241 240 240 241 241 241 242 244 245 245 247 246 247 249 248 250 251 252 254 257 258 259 261 261 262 264 264 266 268 270 271 272 271 271 273 276 277 278
241 242 242 243 243 242 241 241 242 243 241 241 243 245 245 246 248 249 251 250 252 253 254 256 259 261 262 262 263 263 264 265 266 267 267 269 271 271 270 270 273 275 277
241 241 243 244 244 243 242 242 243 244 244 244 243 244 245 246 249 251 252 253 253 255 256 257 259 262 263 263 264 264 264 265 265 265 266 268 269 269 270 270 271 272 273
241 242 243 243 244 243 243 244 245 245 245 245 245 245 246 248 251 253 254 254 255 257 258 259 260 263 265 265 265 265 264 265 264 264 265 266 267 267 270 270 271 272 272
241 241 242 243 243 243 244 245 246 246 247 247 245 246 247 249 252 255 255 257 257 259 260 261 263 265 266 266 266 266 266 265 265 265 265 266 267 267 269 270 272 273 273
242 242 242 243 243 244 245 246 246 247 249 250 247 247 248 250 254 257 258 259 260 261 262 264 265 267 268 268 267 267 266 266 266 266 265 265 266 266 267 268 271 273 274
243 242 242 243 243 244 245 246 247 248 249 250 249 249 251 253 255 258 260 261 262 262 263 265 267 268 269 268 267 267 267 266 266 266 266 265 265 266 267 268 269 271 273
243 242 242 243 245 245 245 246 247 248 249 250 251 251 253 256 257 259 260 262 263 264 264 266 268 268 268 268 267 267 266 266 265 266 267 266 265 265 266 267 268 269 270
243 242 243 244 245 246 246 247 249 248 249 251 252 253 255 258 260 261 262 263 264 266 267 266 267 269 269 267 266 266 267 267 266 266 266 266 266 265 265 266 267 268 270
243 243 243 244 245 246 246 247 249 249 250 252 253 253 255 257 259 261 263 265 266 267 268 269 269 269 269 266 265 266 267 267 267 266 265 265 266 266 266 266 267 269 270
243 243 243 244 245 246 247 247 249 250 250 252 253 254 256 258 259 262 264 266 268 268 269 270 270 270 269 267 265 265 266 267 268 267 265 266 266 266 267 267 267 268 269
245 244 244 244 245 246 248 248 250 251 253 253 255 256 257 259 262 263 264 266 268 269 270 271 271 269 269 268 267 266 266 267 268 267 266 266 266 267 268 268 268 269 270
247 248 247 246 247 248 249 249 250 252 253 255 256 257 257 259 261 264 266 266 268 269 271 272 271 269 268 268 266 265 265 266 267 267 266 266 266 267 268 269 268 269 270
248 248 248 249 249 249 250 252 251 252 255 255 256 257 257 259 261 263 266 268 270 270 270 271 271 269 268 267 266 266 266 266 265 265 266 266 266 267 268 270 271 270 270
249 249 249 250 251 251 251 252 253 254 254 256 257 257 258 259 261 264 266 267 267 269 269 271 270 269 268 267 266 265 264 264 265 265 265 267 268 268 269 269 271 272 271
251 250 251 251 252 253 253 253 254 255 256 257 258 258 259 259 261 264 266 267 268 268 268 269 269 268 268 267 265 264 263 264 265 266 267 267 267 268 269 269 269 271 272
253 253 252 253 252 253 254 254 255 255 256 257 258 260 260 261 262 265 267 268 268 269 269 269 268 267 267 266 264 264 263 264 265 266 267 267 268 269 269 270 271 271 272
255 252 252 253 253 254 254 254 254 255 256 257 259 261 263 263 262 264 265 268 269 269 270 270 268 267 265 265 265 267 267 266 266 265 265 266 268 269 270 271 272 271 271
255 253 253 253 253 254 254 254 255 257 258 259 260 262 264 266 265 265 267 268 269 270 270 269 267 266 265 265 267 268 268 267 268 267 266 267 268 270 271 271 272 271 272
256 254 253 252 252 253 254 254 255 257 259 259 260 261 263 265 266 267 268 270 270 271 271 269 266 266 268 268 267 268 268 269 269 269 269 269 270 271 271 271 272 273 272
257 255 254 254 254 255 256 256 257 258 259 260 261 262 264 265 266 268 269 270 271 270 271 269 268 269 269 268 268 267 268 269 269 269 271 271 272 271 272 272 273 273 273
Height
5842 5843 5844 5845 5846 5848 5849 5849 5850 5851 5851 5852 5852 5853 5853 5854 5854 5855 5855 5856 5856 5857 5857 5857 5857 5857 5858 5858 5858 5858 5858 5858 5858 5858 5858 5858 5859 5859 5859 5859 5859 5859 5859
5840 5841 5842 5844 5845 5846 5847 5848 5849 5850 5850 5851 5851 5852 5852 5853 5853 5854 5855 5855 5856 5856 5856 5857 5857 5857 5857 5857 5857 5857 5857 5858 5858 5858 5858 5858 5858 5858 5858 5858 5858 5858 5858
5838 5839 5840 5841 5842 5844 5845 5846 5847 5848 5849 5850 5850 5851 5851 5852 5853 5853 5854 5854 5855 5855 5855 5856 5856 5856 5856 5856 5856 5857 5857 5857 5857 5857 5857 5857 5857 5858 5858 5858 5857 5857 5857
5835 5836 5837 5839 5840 5841 5843 5844 5845 5846 5847 5848 5849 5849 5850 5851 5851 5852 5852 5853 5853 5854 5854 5854 5855 5855 5855 5855 5855 5856 5856 5856 5856 5856 5856 5856 5856 5856 5857 5857 5856 5856 5856
5831 5833 5834 5836 5837 5838 5840 5841 5842 5843 5844 5846 5847 5847 5848 5849 5850 5850 5851 5851 5852 5852 5852 5853 5853 5853 5853 5854 5854 5854 5854 5855 5855 5855 5855 5855 5855 5855 5855 5855 5855 5855 5855
5827 5829 5831 5832 5834 5835 5837 5838 5840 5841 5842 5843 5844 5845 5846 5847 5848 5848 5849 5849 5850 5850 5851 5851 5851 5851 5852 5852 5852 5852 5852 5853 5853 5853 5853 5853 5853 5853 5854 5854 5854 5853 5853
5823 5825 5827 5829 5831 5832 5834 5835 5836 5838 5839 5840 5841 5842 5843 5844 5845 5846 5847 5847 5848 5848 5848 5849 5849 5849 5849 5849 5850 5850 5850 5850 5851 5851 5851 5851 5852 5851 5851 5851 5851 5851 5851
5819 5821 5823 5825 5827 5828 5830 5832 5833 5834 5835 5837 5838 5839 5840 5841 5842 5843 5844 5844 5845 5845 5846 5846 5846 5846 5847 5847 5847 5847 5847 5847 5848 5848 5848 5849 5849 5849 5849 5849 5849 5849 5849
5814 5816 5818 5820 5822 5824 5826 5828 5829 5831 5832 5833 5834 5836 5837 5838 5839 5840 5841 5841 5842 5842 5843 5843 5843 5843 5843 5843 5843 5843 5844 5844 5844 5845 5845 5845 5846 5846 5846 5846 5846 5846 5846
5809 5811 5813 5816 5818 5820 5821 5823 5825 5827 5828 5829 5830 5832 5833 5834 5835 5836 5837 5838 5838 5839 5839 5839 5840 5840 5840 5840 5840 5839 5840 5840 5840 5840 5841 5842 5842 5842 5842 5843 5843 5843 5843
5803 5806 5808 5811 5813 5815 5817 5818 5820 5822 5824 5825 5826 5828 5829 5830 5831 5832 5833 5833 5834 5834 5835 5835 5835 5835 5835 5835 5835 5835 5835 5835 5835 5836 5837 5837 5837 5838 5838 5839 5839 5839 5839
5797 5800 5803 5805 5807 5809 5811 5813 5815 5817 5819 5820 5822 5823 5824 5825 5827 5828 5828 5829 5829 5830 5830 5830 5830 5830 5830 5830 5829 5829 5830 5830 5830 5831 5832 5832 5833 5833 5834 5834 5834 5835 5835
5791 5794 5796 5799 5801 5804 5806 5807 5809 5811 5813 5815 5816 5818 5819 5820 5821 5823 5823 5824 5824 5825 5825 5825 5825 5824 5824 5823 5823 5823 5823 5824 5825 5825 5826 5827 5827 5828 5828 5829 5829 5829 5829
5785 5788 5790 5793 5795 5798 5800 5802 5803 5805 5807 5809 5811 5812 5813 5815 5816 5817 5817 5818 5819 5819 5819 5819 5818 5818 5817 5817 5817 5817 5817 5818 5818 5819 5820 5821 5821 5822 5822 5823 5824 5824 5824
5778 5781 5784 5786 5789 5791 5793 5795 5797 5799 5801 5803 5804 5806 5807 5809 5810 5811 5811 5812 5812 5812 5812 5812 5812 5811 5810 5810 5810 5811 5811 5811 5812 5813 5814 5814 5815 5816 5816 5817 5817 5818 5818
5771 5774 5777 5779 5782 5784 5787 5789 5790 5792 5794 5796 5798 5799 5801 5802 5803 5804 5805 5805 5805 5805 5805 5805 5804 5803 5803 5803 5803 5804 5804 5805 5805 5806 5807 5808 5808 5809 5809 5810 5810 5810 5811
5764 5766 5769 5772 5775 5777 5780 5782 5783 5785 5787 5789 5791 5792 5794 5795 5796 5797 5797 5798 5798 5797 5797 5797 5796 5796 5796 5796 5796 5797 5797 5798 5799 5799 5800 5800 5801 5801 5802 5802 5803 5803 5803
5756 5759 5762 5765 5767 5770 5772 5774 5776 5778 5780 5781 5783 5785 5786 5787 5788 5789 5789 5790 5790 5789 5789 5789 5788 5788 5788 5788 5788 5788 5789 5790 5791 5791 5792 5793 5793 5794 5794 5795 5795 5795 5795
5749 5752 5754 5757 5760 5762 5764 5766 5768 5770 5772 5773 5775 5776 5778 5779 5780 5780 5781 5781 5781 5781 5781 5780 5780 5779 5779 5779 5780 5780 5781 5782 5783 5783 5784 5784 5785 5786 5786 5786 5787 5787 5787
5741 5744 5746 5749 5751 5754 5756 5758 5760 5761 5763 5765 5766 5768 5769 5770 5771 5772 5772 5772 5772 5772 5772 5771 5771 5771 5770 5771 5771 5772 5773 5774 5775 5775 5776 5776 5777 5778 5778 5778 5778 5778 5778
5732 5735 5738 5741 5743 5745 5747 5749 5751 5753 5755 5756 5758 5759 5760 5761 5762 5763 5763 5763 5763 5763 5763 5762 5762 5762 5762 5762 5762 5764 5765 5765 5766 5767 5767 5768 5768 5769 5769 5769 5769 5770 5770
5724 5727 5730 5732 5735 5737 5739 5741 5742 5744 5746 5748 5749 5750 5751 5752 5753 5753 5754 5754 5754 5754 5754 5753 5753 5753 5753 5753 5754 5755 5756 5758 5758 5758 5758 5759 5759 5760 5760 5760 5760 5761 5761
5716 5718 5721 5724 5726 5728 5730 5732 5734 5735 5737 5739 5741 5742 5743 5743 5744 5745 5745 5745 5745 5745 5745 5744 5744 5744 5745 5745 5745 5746 5747 5748 5749 5750 5749 5750 5750 5750 5751 5751 5751 5751 5751
5708 5710 5713 5715 5718 5720 5722 5723 5725 5727 5729 5731 5732 5733 5734 5734 5735 5736 5736 5736 5736 5736 5735 5735 5735 5735 5736 5737 5737 5737 5738 5738 5739 5740 5741 5741 5741 5741 5741 5741 5741 5741 5741
5700 5702 5704 5707 5709 5711 5713 5715 5717 5718 5720 5721 5723 5724 5725 5725 5726 5727 5727 5727 5727 5727 5726 5726 5725 5726 5726 5727 5727 5728 5728 5728 5728 5729 5731 5732 5732 5731 5731 5731 5731 5731 5731
5692 5694 5696 5698 5700 5702 5704 5706 5708 5709 5710 5712 5713 5714 5715 5716 5716 5717 5717 5718 5718 5717 5717 5717 5716 5716 5716 5716 5717 5717 5718 5718 5719 5719 5720 5720 5721 5721 5721 5720 5720 5720 5720